Arctic Taglu — CY8968 — position and weather

sailwx.info

Track history (hours):
 
Tides and Currents Weather Stations Pressure Air Temp Water Temp Dewpoint Dewpoint Depression Visibility Wind Speed Wind Dir Waves Ship Positions

Arctic Taglu

Last reported at 2014-Jul-29 00:31 UTC. Time now 2014-Jul-29 00:45 UTC.
Position N 49°09' W 123°02'.

Length 33 m; draft 6 m.

Type: Tug. MMSI: 316003483.

Date/timePositionNaut miles runAvg speedWind from/ knotsBaromVisibWave heightAir tempDewpointWater temp
2014-Jul-29 00:31N 49°09' W 123°02'0 0.0
2014-Jul-28 23:31N 49°09' W 123°02'0 0.0
2014-Jul-28 22:31N 49°09' W 123°02'0 0.0
2014-Jul-28 21:31N 49°09' W 123°02'0 0.0
2014-Jul-28 20:31N 49°09' W 123°02'0 0.0
2014-Jul-28 19:31N 49°09' W 123°02'0 0.0
2014-Jul-28 18:31N 49°09' W 123°02'0 0.0
2014-Jul-28 17:31N 49°09' W 123°02'0 0.0
2014-Jul-28 16:31N 49°09' W 123°02'0 0.0
2014-Jul-28 15:32N 49°09' W 123°02'0 0.0
2014-Jul-28 14:31N 49°09' W 123°02'0 0.0
2014-Jul-28 13:31N 49°09' W 123°02'0 0.0
2014-Jul-28 12:31N 49°09' W 123°02'0 0.0
2014-Jul-28 11:31N 49°09' W 123°02'0 0.0
2014-Jul-28 10:31N 49°09' W 123°02'0 0.0
2014-Jul-28 09:28N 49°09' W 123°02'0 0.0
2014-Jul-28 08:28N 49°09' W 123°02'0 0.0
2014-Jul-28 07:31N 49°09' W 123°02'0 0.0
2014-Jul-28 06:31N 49°09' W 123°02'0 0.0
2014-Jul-28 05:31N 49°09' W 123°02'0 0.0
2014-Jul-28 04:31N 49°09' W 123°02'0 0.0
2014-Jul-28 03:31N 49°09' W 123°02'0 0.0
2014-Jul-28 02:31N 49°09' W 123°02'0 0.0
2014-Jul-28 01:31N 49°09' W 123°02'0 0.0
2014-Jul-28 00:31N 49°09' W 123°02'0 0.0
2014-Jul-27 23:31N 49°09' W 123°02'0 0.0
2014-Jul-27 22:31N 49°09' W 123°02'0 0.0
2014-Jul-27 21:28N 49°09' W 123°02'0 0.0
2014-Jul-27 20:31N 49°09' W 123°02'0 0.0
2014-Jul-27 19:31N 49°09' W 123°02'0 0.0
2014-Jul-27 18:25N 49°09' W 123°02'0 0.0
2014-Jul-27 17:31N 49°09' W 123°02'0 0.0
2014-Jul-27 16:28N 49°09' W 123°02'0 0.0
2014-Jul-27 15:31N 49°09' W 123°02'0 0.0
2014-Jul-27 14:31N 49°09' W 123°02'0 0.0
2014-Jul-27 13:31N 49°09' W 123°02'0 0.0
2014-Jul-27 12:31N 49°09' W 123°02'0 0.0
2014-Jul-27 11:31N 49°09' W 123°02'0 0.0
2014-Jul-27 10:31N 49°09' W 123°02'0 0.0
2014-Jul-27 09:31N 49°09' W 123°02'0 0.0
2014-Jul-27 08:31N 49°09' W 123°02'0 0.0
2014-Jul-27 07:31N 49°09' W 123°02'0 0.0
2014-Jul-27 06:31N 49°09' W 123°02'0 0.0
2014-Jul-27 05:31N 49°09' W 123°02'0 0.0
2014-Jul-27 04:31N 49°09' W 123°02'0 0.0
2014-Jul-27 03:28N 49°09' W 123°02'0 0.0
2014-Jul-27 02:31N 49°09' W 123°02'0 0.0
2014-Jul-27 01:31N 49°09' W 123°02'0 0.0
2014-Jul-27 00:31N 49°09' W 123°02'0 0.0
2014-Jul-26 23:31N 49°09' W 123°02'0 0.0
2014-Jul-26 22:31N 49°09' W 123°02'0 0.0
2014-Jul-26 21:31N 49°09' W 123°02'0 0.0
2014-Jul-26 20:31N 49°09' W 123°02'0 0.0
2014-Jul-26 19:31N 49°09' W 123°02'0 0.0
2014-Jul-26 18:31N 49°09' W 123°02'0 0.0
2014-Jul-26 17:31N 49°09' W 123°02'0 0.0
2014-Jul-26 16:31N 49°09' W 123°02'0 0.0
2014-Jul-26 15:31N 49°09' W 123°02'0 0.0
2014-Jul-26 14:33N 49°09' W 123°02'5 4.7
2014-Jul-26 13:33N 49°06' W 123°09'8 7.9
2014-Jul-26 12:33N 49°06' W 123°21'10 9.9
2014-Jul-26 11:33N 49°10' W 123°35'10 9.9
2014-Jul-26 10:33N 49°13' W 123°49'5 5.3
2014-Jul-26 09:33N 49°10' W 123°56'0 0.0
2014-Jul-26 08:33N 49°10' W 123°56'4 3.7
2014-Jul-26 07:33N 49°13' W 123°52'10 9.9
2014-Jul-26 06:33N 49°11' W 123°37'1010.2
2014-Jul-26 05:33N 49°07' W 123°22'1110.5
2014-Jul-26 04:33N 49°07' W 123°06'3 3.3
2014-Jul-26 03:33N 49°09' W 123°02'0 0.0
2014-Jul-26 02:33N 49°09' W 123°02'0 0.0
2014-Jul-26 01:33N 49°09' W 123°02'0 0.0
2014-Jul-26 00:33N 49°09' W 123°02'0 0.0
2014-Jul-25 23:33N 49°09' W 123°02'0 0.0
2014-Jul-25 22:33N 49°09' W 123°02'0 0.0
2014-Jul-25 21:33N 49°09' W 123°02'0 0.0
2014-Jul-25 20:33N 49°09' W 123°02'0 0.0
2014-Jul-25 19:33N 49°09' W 123°02'0 0.0
2014-Jul-25 18:33N 49°09' W 123°02'0 0.0
2014-Jul-25 17:33N 49°09' W 123°02'0 0.0
2014-Jul-25 16:33N 49°09' W 123°02'0 0.0
2014-Jul-25 15:33N 49°09' W 123°02'0 0.0
2014-Jul-25 14:33N 49°09' W 123°02'5 5.1
2014-Jul-25 13:33N 49°07' W 123°09'7 7.3
2014-Jul-25 12:33N 49°06' W 123°20'10 9.7
2014-Jul-25 11:33N 49°09' W 123°35'10 9.7
2014-Jul-25 10:33N 49°13' W 123°48'6 5.7
2014-Jul-25 09:33N 49°10' W 123°56'0 0.0
2014-Jul-25 08:33N 49°10' W 123°56'5 5.4
2014-Jul-25 07:33N 49°13' W 123°49'10 9.6
2014-Jul-25 06:33N 49°11' W 123°35'1010.0
2014-Jul-25 05:33N 49°07' W 123°21'1110.7
2014-Jul-25 04:33N 49°07' W 123°05'2 2.0
2014-Jul-25 03:33N 49°09' W 123°02'0 0.0
2014-Jul-25 02:33N 49°09' W 123°02'0 0.0
2014-Jul-25 01:33N 49°09' W 123°02'0 0.0
2014-Jul-25 00:33N 49°09' W 123°02'0 0.0
2014-Jul-24 23:33N 49°09' W 123°02'0 0.0
2014-Jul-24 22:33N 49°09' W 123°02'0 0.0
2014-Jul-24 21:30N 49°09' W 123°02'0 0.0
2014-Jul-24 20:33N 49°09' W 123°02'0 0.0
2014-Jul-24 19:33N 49°09' W 123°02'0 0.0
2014-Jul-24 18:33N 49°09' W 123°02'0 0.0
2014-Jul-24 17:33N 49°09' W 123°02'0 0.0
2014-Jul-24 16:33N 49°09' W 123°02'0 0.0
2014-Jul-24 15:33N 49°09' W 123°02'0 0.0
2014-Jul-24 14:34N 49°09' W 123°02'6 5.9
2014-Jul-24 13:33N 49°07' W 123°11'7 7.1
2014-Jul-24 12:34N 49°07' W 123°22'9 9.5
2014-Jul-24 11:34N 49°10' W 123°35'10 9.6
2014-Jul-24 10:33N 49°13' W 123°49'5 5.0
2014-Jul-24 09:33N 49°10' W 123°56'0 0.0
2014-Jul-24 08:33N 49°10' W 123°56'4 4.0
2014-Jul-24 07:34N 49°13' W 123°51'10 9.9
2014-Jul-24 06:34N 49°11' W 123°36'1110.5
2014-Jul-24 05:33N 49°07' W 123°22'1110.9
2014-Jul-24 04:34N 49°07' W 123°05'2 2.3
2014-Jul-24 03:33N 49°09' W 123°02'0 0.0
2014-Jul-24 02:30N 49°09' W 123°02'0 0.0
2014-Jul-24 01:33N 49°09' W 123°02'0 0.0
2014-Jul-24 00:33N 49°09' W 123°02'0 0.0
2014-Jul-23 23:33N 49°09' W 123°02'0 0.0
2014-Jul-23 22:33N 49°09' W 123°02'0 0.0
2014-Jul-23 21:33N 49°09' W 123°02'0 0.0
2014-Jul-23 20:33N 49°09' W 123°02'0 0.0
2014-Jul-23 19:33N 49°09' W 123°02'0 0.0
2014-Jul-23 18:33N 49°09' W 123°02'0 0.0
2014-Jul-23 17:33N 49°09' W 123°02'0 0.0
2014-Jul-23 16:33N 49°09' W 123°02'0 0.0
2014-Jul-23 15:34N 49°09' W 123°02'0 0.0
2014-Jul-23 14:34N 49°09' W 123°02'6 5.9
2014-Jul-23 13:34N 49°07' W 123°11'7 7.0
2014-Jul-23 12:34N 49°06' W 123°21'10 9.6
2014-Jul-23 11:34N 49°10' W 123°35'10 9.7
2014-Jul-23 10:33N 49°13' W 123°49'5 5.1
2014-Jul-23 09:33N 49°10' W 123°56'0 0.0
2014-Jul-23 08:34N 49°10' W 123°56'4 4.0
2014-Jul-23 07:33N 49°13' W 123°51'10 9.9
2014-Jul-23 06:33N 49°11' W 123°36'1211.8
2014-Jul-23 05:33N 49°06' W 123°20'9 9.5
2014-Jul-23 04:34N 49°07' W 123°05'3 2.6
2014-Jul-23 03:34N 49°09' W 123°02'0 0.0
2014-Jul-23 02:34N 49°09' W 123°02'0 0.0
2014-Jul-23 01:32N 49°09' W 123°02'0 0.0
2014-Jul-23 00:32N 49°09' W 123°02'0 0.0
2014-Jul-22 23:32N 49°09' W 123°02'0 0.0
2014-Jul-22 22:32N 49°09' W 123°02'0 0.0
2014-Jul-22 21:32N 49°09' W 123°02'0 0.0
2014-Jul-22 20:32N 49°09' W 123°02'0 0.0
2014-Jul-22 19:32N 49°09' W 123°02'0 0.0
2014-Jul-22 18:32N 49°09' W 123°02'0 0.0
2014-Jul-22 17:32N 49°09' W 123°02'0 0.0
2014-Jul-22 16:32N 49°09' W 123°02'0 0.0
2014-Jul-22 15:34N 49°09' W 123°02'0 0.0
2014-Jul-22 14:34N 49°09' W 123°02'6 5.6
2014-Jul-22 13:34N 49°07' W 123°10'6 5.9
2014-Jul-22 12:34N 49°06' W 123°19'10 9.9
2014-Jul-22 11:34N 49°09' W 123°34'10 9.9
2014-Jul-22 10:34N 49°13' W 123°48'6 5.9
2014-Jul-22 09:33N 49°10' W 123°56'0 0.0
2014-Jul-22 08:33N 49°10' W 123°56'3 3.4
2014-Jul-22 07:34N 49°12' W 123°52'1010.1
2014-Jul-22 06:34N 49°10' W 123°37'1010.4
2014-Jul-22 05:34N 49°07' W 123°22'1010.5
2014-Jul-22 04:33N 49°07' W 123°06'3 3.2
2014-Jul-22 03:34N 49°09' W 123°02'0 0.0
2014-Jul-22 02:25N 49°09' W 123°02'0 0.0
2014-Jul-22 01:31N 49°09' W 123°02'0 0.0
2014-Jul-22 00:31N 49°09' W 123°02'0 0.0
2014-Jul-21 23:31N 49°09' W 123°02'0 0.0
2014-Jul-21 22:31N 49°09' W 123°02'0 0.0
2014-Jul-21 21:31N 49°09' W 123°02'0 0.0
2014-Jul-21 20:31N 49°09' W 123°02'0 0.0
2014-Jul-21 20:16N 49°09' W 123°02'0 0.0
2014-Jul-21 19:31N 49°09' W 123°02'0 0.0
2014-Jul-21 18:31N 49°09' W 123°02'0 0.0
2014-Jul-21 17:31N 49°09' W 123°02'0 0.0
2014-Jul-21 16:31N 49°09' W 123°02'0 0.0
2014-Jul-21 15:31N 49°09' W 123°02'0 0.0
2014-Jul-21 14:31N 49°09' W 123°02'0 0.0
2014-Jul-21 13:31N 49°09' W 123°02'0 0.0
2014-Jul-21 12:31N 49°09' W 123°02'0 0.0
2014-Jul-21 11:31N 49°09' W 123°02'0 0.0
2014-Jul-21 10:31N 49°09' W 123°02'0 0.0
2014-Jul-21 09:31N 49°09' W 123°02'0 0.0
2014-Jul-21 08:31N 49°09' W 123°02'0 0.0
2014-Jul-21 07:31N 49°09' W 123°02'0 0.0
2014-Jul-21 06:31N 49°09' W 123°02'0 0.0
2014-Jul-21 05:31N 49°09' W 123°02'0 0.0
2014-Jul-21 04:28N 49°09' W 123°02'0 0.0
2014-Jul-21 03:31N 49°09' W 123°02'0 0.0
2014-Jul-21 02:31N 49°09' W 123°02'0 0.0
2014-Jul-21 01:31N 49°09' W 123°02'0 0.0
2014-Jul-21 00:31N 49°09' W 123°02'0 0.0
2014-Jul-20 23:31N 49°09' W 123°02'0 0.0
2014-Jul-20 22:31N 49°09' W 123°02'0 0.0
2014-Jul-20 21:31N 49°09' W 123°02'0 0.0
2014-Jul-20 20:31N 49°09' W 123°02'0 0.0
2014-Jul-20 19:31N 49°09' W 123°02'0 0.0
2014-Jul-20 18:31N 49°09' W 123°02'0 0.0
2014-Jul-20 17:31N 49°09' W 123°02'0 0.0
2014-Jul-20 16:31N 49°09' W 123°02'0 0.0
2014-Jul-20 15:31N 49°09' W 123°02'0 0.0
2014-Jul-20 14:31N 49°09' W 123°02'0 0.0
2014-Jul-20 13:31N 49°09' W 123°02'0 0.0
2014-Jul-20 12:31N 49°09' W 123°02'0 0.0
2014-Jul-20 11:31N 49°09' W 123°02'0 0.0
2014-Jul-20 10:31N 49°09' W 123°02'0 0.0
2014-Jul-20 09:31N 49°09' W 123°02'0 0.0
2014-Jul-20 08:31N 49°09' W 123°02'0 0.0
2014-Jul-20 07:28N 49°09' W 123°02'0 0.0
2014-Jul-20 06:31N 49°09' W 123°02'0 0.0
2014-Jul-20 05:31N 49°09' W 123°02'0 0.0
2014-Jul-20 04:31N 49°09' W 123°02'0 0.0
2014-Jul-20 03:28N 49°09' W 123°02'0 0.0
2014-Jul-20 02:31N 49°09' W 123°02'0 0.0
2014-Jul-20 01:31N 49°09' W 123°02'0 0.0
2014-Jul-20 00:31N 49°09' W 123°02'0 0.0
2014-Jul-19 23:31N 49°09' W 123°02'0 0.0
2014-Jul-19 22:31N 49°09' W 123°02'0 0.0
2014-Jul-19 21:31N 49°09' W 123°02'0 0.0
2014-Jul-19 20:31N 49°09' W 123°02'0 0.0
2014-Jul-19 19:31N 49°09' W 123°02'0 0.0
2014-Jul-19 18:31N 49°09' W 123°02'0 0.0
2014-Jul-19 17:31N 49°09' W 123°02'0 0.0
2014-Jul-19 16:31N 49°09' W 123°02'0 0.0
2014-Jul-19 15:31N 49°09' W 123°02'0 0.0
2014-Jul-19 14:33N 49°09' W 123°02'7 7.1
2014-Jul-19 13:33N 49°08' W 123°13'5 5.3
2014-Jul-19 12:33N 49°06' W 123°21'10 9.6
2014-Jul-19 11:33N 49°10' W 123°35'10 9.6
2014-Jul-19 10:33N 49°13' W 123°48'6 5.7
2014-Jul-19 09:33N 49°10' W 123°56'0 0.0
2014-Jul-19 08:33N 49°10' W 123°56'6 6.2
2014-Jul-19 07:33N 49°13' W 123°47'1111.3
2014-Jul-19 06:33N 49°09' W 123°31'9 8.5
2014-Jul-19 05:33N 49°06' W 123°19'9 9.5
2014-Jul-19 04:33N 49°07' W 123°05'2 2.2
2014-Jul-19 03:33N 49°09' W 123°02'0 0.0
2014-Jul-19 02:33N 49°09' W 123°02'0 0.0
2014-Jul-19 01:33N 49°09' W 123°02'0 0.0
2014-Jul-19 00:33N 49°09' W 123°02'  
Track history (hours):
 
Tides and Currents Weather Stations Pressure Air Temp Water Temp Dewpoint Dewpoint Depression Visibility Wind Speed Wind Dir Waves Ship Positions

Arctic Taglu

Last reported at 2014-Jul-29 00:31 UTC. Time now 2014-Jul-29 00:45 UTC.
Position N 49°09' W 123°02'.

Length 33 m; draft 6 m.

Type: Tug. MMSI: 316003483.

Date/timePositionNaut miles runAvg speedWind from/ knotsBaromVisibWave heightAir tempDewpointWater temp
2014-Jul-29 00:31N 49°09' W 123°02'0 0.0
2014-Jul-28 23:31N 49°09' W 123°02'0 0.0
2014-Jul-28 22:31N 49°09' W 123°02'0 0.0
2014-Jul-28 21:31N 49°09' W 123°02'0 0.0
2014-Jul-28 20:31N 49°09' W 123°02'0 0.0
2014-Jul-28 19:31N 49°09' W 123°02'0 0.0
2014-Jul-28 18:31N 49°09' W 123°02'0 0.0
2014-Jul-28 17:31N 49°09' W 123°02'0 0.0
2014-Jul-28 16:31N 49°09' W 123°02'0 0.0
2014-Jul-28 15:32N 49°09' W 123°02'0 0.0
2014-Jul-28 14:31N 49°09' W 123°02'0 0.0
2014-Jul-28 13:31N 49°09' W 123°02'0 0.0
2014-Jul-28 12:31N 49°09' W 123°02'0 0.0
2014-Jul-28 11:31N 49°09' W 123°02'0 0.0
2014-Jul-28 10:31N 49°09' W 123°02'0 0.0
2014-Jul-28 09:28N 49°09' W 123°02'0 0.0
2014-Jul-28 08:28N 49°09' W 123°02'0 0.0
2014-Jul-28 07:31N 49°09' W 123°02'0 0.0
2014-Jul-28 06:31N 49°09' W 123°02'0 0.0
2014-Jul-28 05:31N 49°09' W 123°02'0 0.0
2014-Jul-28 04:31N 49°09' W 123°02'0 0.0
2014-Jul-28 03:31N 49°09' W 123°02'0 0.0
2014-Jul-28 02:31N 49°09' W 123°02'0 0.0
2014-Jul-28 01:31N 49°09' W 123°02'0 0.0
2014-Jul-28 00:31N 49°09' W 123°02'0 0.0
2014-Jul-27 23:31N 49°09' W 123°02'0 0.0
2014-Jul-27 22:31N 49°09' W 123°02'0 0.0
2014-Jul-27 21:28N 49°09' W 123°02'0 0.0
2014-Jul-27 20:31N 49°09' W 123°02'0 0.0
2014-Jul-27 19:31N 49°09' W 123°02'0 0.0
2014-Jul-27 18:25N 49°09' W 123°02'0 0.0
2014-Jul-27 17:31N 49°09' W 123°02'0 0.0
2014-Jul-27 16:28N 49°09' W 123°02'0 0.0
2014-Jul-27 15:31N 49°09' W 123°02'0 0.0
2014-Jul-27 14:31N 49°09' W 123°02'0 0.0
2014-Jul-27 13:31N 49°09' W 123°02'0 0.0
2014-Jul-27 12:31N 49°09' W 123°02'0 0.0
2014-Jul-27 11:31N 49°09' W 123°02'0 0.0
2014-Jul-27 10:31N 49°09' W 123°02'0 0.0
2014-Jul-27 09:31N 49°09' W 123°02'0 0.0
2014-Jul-27 08:31N 49°09' W 123°02'0 0.0
2014-Jul-27 07:31N 49°09' W 123°02'0 0.0
2014-Jul-27 06:31N 49°09' W 123°02'0 0.0
2014-Jul-27 05:31N 49°09' W 123°02'0 0.0
2014-Jul-27 04:31N 49°09' W 123°02'0 0.0
2014-Jul-27 03:28N 49°09' W 123°02'0 0.0
2014-Jul-27 02:31N 49°09' W 123°02'0 0.0
2014-Jul-27 01:31N 49°09' W 123°02'0 0.0
2014-Jul-27 00:31N 49°09' W 123°02'0 0.0
2014-Jul-26 23:31N 49°09' W 123°02'0 0.0
2014-Jul-26 22:31N 49°09' W 123°02'0 0.0
2014-Jul-26 21:31N 49°09' W 123°02'0 0.0
2014-Jul-26 20:31N 49°09' W 123°02'0 0.0
2014-Jul-26 19:31N 49°09' W 123°02'0 0.0
2014-Jul-26 18:31N 49°09' W 123°02'0 0.0
2014-Jul-26 17:31N 49°09' W 123°02'0 0.0
2014-Jul-26 16:31N 49°09' W 123°02'0 0.0
2014-Jul-26 15:31N 49°09' W 123°02'0 0.0
2014-Jul-26 14:33N 49°09' W 123°02'5 4.7
2014-Jul-26 13:33N 49°06' W 123°09'8 7.9
2014-Jul-26 12:33N 49°06' W 123°21'10 9.9
2014-Jul-26 11:33N 49°10' W 123°35'10 9.9
2014-Jul-26 10:33N 49°13' W 123°49'5 5.3
2014-Jul-26 09:33N 49°10' W 123°56'0 0.0
2014-Jul-26 08:33N 49°10' W 123°56'4 3.7
2014-Jul-26 07:33N 49°13' W 123°52'10 9.9
2014-Jul-26 06:33N 49°11' W 123°37'1010.2
2014-Jul-26 05:33N 49°07' W 123°22'1110.5
2014-Jul-26 04:33N 49°07' W 123°06'3 3.3
2014-Jul-26 03:33N 49°09' W 123°02'0 0.0
2014-Jul-26 02:33N 49°09' W 123°02'0 0.0
2014-Jul-26 01:33N 49°09' W 123°02'0 0.0
2014-Jul-26 00:33N 49°09' W 123°02'0 0.0
2014-Jul-25 23:33N 49°09' W 123°02'0 0.0
2014-Jul-25 22:33N 49°09' W 123°02'0 0.0
2014-Jul-25 21:33N 49°09' W 123°02'0 0.0
2014-Jul-25 20:33N 49°09' W 123°02'0 0.0
2014-Jul-25 19:33N 49°09' W 123°02'0 0.0
2014-Jul-25 18:33N 49°09' W 123°02'0 0.0
2014-Jul-25 17:33N 49°09' W 123°02'0 0.0
2014-Jul-25 16:33N 49°09' W 123°02'0 0.0
2014-Jul-25 15:33N 49°09' W 123°02'0 0.0
2014-Jul-25 14:33N 49°09' W 123°02'5 5.1
2014-Jul-25 13:33N 49°07' W 123°09'7 7.3
2014-Jul-25 12:33N 49°06' W 123°20'10 9.7
2014-Jul-25 11:33N 49°09' W 123°35'10 9.7
2014-Jul-25 10:33N 49°13' W 123°48'6 5.7
2014-Jul-25 09:33N 49°10' W 123°56'0 0.0
2014-Jul-25 08:33N 49°10' W 123°56'5 5.4
2014-Jul-25 07:33N 49°13' W 123°49'10 9.6
2014-Jul-25 06:33N 49°11' W 123°35'1010.0
2014-Jul-25 05:33N 49°07' W 123°21'1110.7
2014-Jul-25 04:33N 49°07' W 123°05'2 2.0
2014-Jul-25 03:33N 49°09' W 123°02'0 0.0
2014-Jul-25 02:33N 49°09' W 123°02'0 0.0
2014-Jul-25 01:33N 49°09' W 123°02'0 0.0
2014-Jul-25 00:33N 49°09' W 123°02'0 0.0
2014-Jul-24 23:33N 49°09' W 123°02'0 0.0
2014-Jul-24 22:33N 49°09' W 123°02'0 0.0
2014-Jul-24 21:30N 49°09' W 123°02'0 0.0
2014-Jul-24 20:33N 49°09' W 123°02'0 0.0
2014-Jul-24 19:33N 49°09' W 123°02'0 0.0
2014-Jul-24 18:33N 49°09' W 123°02'0 0.0
2014-Jul-24 17:33N 49°09' W 123°02'0 0.0
2014-Jul-24 16:33N 49°09' W 123°02'0 0.0
2014-Jul-24 15:33N 49°09' W 123°02'0 0.0
2014-Jul-24 14:34N 49°09' W 123°02'6 5.9
2014-Jul-24 13:33N 49°07' W 123°11'7 7.1
2014-Jul-24 12:34N 49°07' W 123°22'9 9.5
2014-Jul-24 11:34N 49°10' W 123°35'10 9.6
2014-Jul-24 10:33N 49°13' W 123°49'5 5.0
2014-Jul-24 09:33N 49°10' W 123°56'0 0.0
2014-Jul-24 08:33N 49°10' W 123°56'4 4.0
2014-Jul-24 07:34N 49°13' W 123°51'10 9.9
2014-Jul-24 06:34N 49°11' W 123°36'1110.5
2014-Jul-24 05:33N 49°07' W 123°22'1110.9
2014-Jul-24 04:34N 49°07' W 123°05'2 2.3
2014-Jul-24 03:33N 49°09' W 123°02'0 0.0
2014-Jul-24 02:30N 49°09' W 123°02'0 0.0
2014-Jul-24 01:33N 49°09' W 123°02'0 0.0
2014-Jul-24 00:33N 49°09' W 123°02'0 0.0
2014-Jul-23 23:33N 49°09' W 123°02'0 0.0
2014-Jul-23 22:33N 49°09' W 123°02'0 0.0
2014-Jul-23 21:33N 49°09' W 123°02'0 0.0
2014-Jul-23 20:33N 49°09' W 123°02'0 0.0
2014-Jul-23 19:33N 49°09' W 123°02'0 0.0
2014-Jul-23 18:33N 49°09' W 123°02'0 0.0
2014-Jul-23 17:33N 49°09' W 123°02'0 0.0
2014-Jul-23 16:33N 49°09' W 123°02'0 0.0
2014-Jul-23 15:34N 49°09' W 123°02'0 0.0
2014-Jul-23 14:34N 49°09' W 123°02'6 5.9
2014-Jul-23 13:34N 49°07' W 123°11'7 7.0
2014-Jul-23 12:34N 49°06' W 123°21'10 9.6
2014-Jul-23 11:34N 49°10' W 123°35'10 9.7
2014-Jul-23 10:33N 49°13' W 123°49'5 5.1
2014-Jul-23 09:33N 49°10' W 123°56'0 0.0
2014-Jul-23 08:34N 49°10' W 123°56'4 4.0
2014-Jul-23 07:33N 49°13' W 123°51'10 9.9
2014-Jul-23 06:33N 49°11' W 123°36'1211.8
2014-Jul-23 05:33N 49°06' W 123°20'9 9.5
2014-Jul-23 04:34N 49°07' W 123°05'3 2.6
2014-Jul-23 03:34N 49°09' W 123°02'0 0.0
2014-Jul-23 02:34N 49°09' W 123°02'0 0.0
2014-Jul-23 01:32N 49°09' W 123°02'0 0.0
2014-Jul-23 00:32N 49°09' W 123°02'0 0.0
2014-Jul-22 23:32N 49°09' W 123°02'0 0.0
2014-Jul-22 22:32N 49°09' W 123°02'0 0.0
2014-Jul-22 21:32N 49°09' W 123°02'0 0.0
2014-Jul-22 20:32N 49°09' W 123°02'0 0.0
2014-Jul-22 19:32N 49°09' W 123°02'0 0.0
2014-Jul-22 18:32N 49°09' W 123°02'0 0.0
2014-Jul-22 17:32N 49°09' W 123°02'0 0.0
2014-Jul-22 16:32N 49°09' W 123°02'0 0.0
2014-Jul-22 15:34N 49°09' W 123°02'0 0.0
2014-Jul-22 14:34N 49°09' W 123°02'6 5.6
2014-Jul-22 13:34N 49°07' W 123°10'6 5.9
2014-Jul-22 12:34N 49°06' W 123°19'10 9.9
2014-Jul-22 11:34N 49°09' W 123°34'10 9.9
2014-Jul-22 10:34N 49°13' W 123°48'6 5.9
2014-Jul-22 09:33N 49°10' W 123°56'0 0.0
2014-Jul-22 08:33N 49°10' W 123°56'3 3.4
2014-Jul-22 07:34N 49°12' W 123°52'1010.1
2014-Jul-22 06:34N 49°10' W 123°37'1010.4
2014-Jul-22 05:34N 49°07' W 123°22'1010.5
2014-Jul-22 04:33N 49°07' W 123°06'3 3.2
2014-Jul-22 03:34N 49°09' W 123°02'0 0.0
2014-Jul-22 02:25N 49°09' W 123°02'0 0.0
2014-Jul-22 01:31N 49°09' W 123°02'0 0.0
2014-Jul-22 00:31N 49°09' W 123°02'0 0.0
2014-Jul-21 23:31N 49°09' W 123°02'0 0.0
2014-Jul-21 22:31N 49°09' W 123°02'0 0.0
2014-Jul-21 21:31N 49°09' W 123°02'0 0.0
2014-Jul-21 20:31N 49°09' W 123°02'0 0.0
2014-Jul-21 20:16N 49°09' W 123°02'0 0.0
2014-Jul-21 19:31N 49°09' W 123°02'0 0.0
2014-Jul-21 18:31N 49°09' W 123°02'0 0.0
2014-Jul-21 17:31N 49°09' W 123°02'0 0.0
2014-Jul-21 16:31N 49°09' W 123°02'0 0.0
2014-Jul-21 15:31N 49°09' W 123°02'0 0.0
2014-Jul-21 14:31N 49°09' W 123°02'0 0.0
2014-Jul-21 13:31N 49°09' W 123°02'0 0.0
2014-Jul-21 12:31N 49°09' W 123°02'0 0.0
2014-Jul-21 11:31N 49°09' W 123°02'0 0.0
2014-Jul-21 10:31N 49°09' W 123°02'0 0.0
2014-Jul-21 09:31N 49°09' W 123°02'0 0.0
2014-Jul-21 08:31N 49°09' W 123°02'0 0.0
2014-Jul-21 07:31N 49°09' W 123°02'0 0.0
2014-Jul-21 06:31N 49°09' W 123°02'0 0.0
2014-Jul-21 05:31N 49°09' W 123°02'0 0.0
2014-Jul-21 04:28N 49°09' W 123°02'0 0.0
2014-Jul-21 03:31N 49°09' W 123°02'0 0.0
2014-Jul-21 02:31N 49°09' W 123°02'0 0.0
2014-Jul-21 01:31N 49°09' W 123°02'0 0.0
2014-Jul-21 00:31N 49°09' W 123°02'0 0.0
2014-Jul-20 23:31N 49°09' W 123°02'0 0.0
2014-Jul-20 22:31N 49°09' W 123°02'0 0.0
2014-Jul-20 21:31N 49°09' W 123°02'0 0.0
2014-Jul-20 20:31N 49°09' W 123°02'0 0.0
2014-Jul-20 19:31N 49°09' W 123°02'0 0.0
2014-Jul-20 18:31N 49°09' W 123°02'0 0.0
2014-Jul-20 17:31N 49°09' W 123°02'0 0.0
2014-Jul-20 16:31N 49°09' W 123°02'0 0.0
2014-Jul-20 15:31N 49°09' W 123°02'0 0.0
2014-Jul-20 14:31N 49°09' W 123°02'0 0.0
2014-Jul-20 13:31N 49°09' W 123°02'0 0.0
2014-Jul-20 12:31N 49°09' W 123°02'0 0.0
2014-Jul-20 11:31N 49°09' W 123°02'0 0.0
2014-Jul-20 10:31N 49°09' W 123°02'0 0.0
2014-Jul-20 09:31N 49°09' W 123°02'0 0.0
2014-Jul-20 08:31N 49°09' W 123°02'0 0.0
2014-Jul-20 07:28N 49°09' W 123°02'0 0.0
2014-Jul-20 06:31N 49°09' W 123°02'0 0.0
2014-Jul-20 05:31N 49°09' W 123°02'0 0.0
2014-Jul-20 04:31N 49°09' W 123°02'0 0.0
2014-Jul-20 03:28N 49°09' W 123°02'0 0.0
2014-Jul-20 02:31N 49°09' W 123°02'0 0.0
2014-Jul-20 01:31N 49°09' W 123°02'0 0.0
2014-Jul-20 00:31N 49°09' W 123°02'0 0.0
2014-Jul-19 23:31N 49°09' W 123°02'0 0.0
2014-Jul-19 22:31N 49°09' W 123°02'0 0.0
2014-Jul-19 21:31N 49°09' W 123°02'0 0.0
2014-Jul-19 20:31N 49°09' W 123°02'0 0.0
2014-Jul-19 19:31N 49°09' W 123°02'0 0.0
2014-Jul-19 18:31N 49°09' W 123°02'0 0.0
2014-Jul-19 17:31N 49°09' W 123°02'0 0.0
2014-Jul-19 16:31N 49°09' W 123°02'0 0.0
2014-Jul-19 15:31N 49°09' W 123°02'0 0.0
2014-Jul-19 14:33N 49°09' W 123°02'7 7.1
2014-Jul-19 13:33N 49°08' W 123°13'5 5.3
2014-Jul-19 12:33N 49°06' W 123°21'10 9.6
2014-Jul-19 11:33N 49°10' W 123°35'10 9.6
2014-Jul-19 10:33N 49°13' W 123°48'6 5.7
2014-Jul-19 09:33N 49°10' W 123°56'0 0.0
2014-Jul-19 08:33N 49°10' W 123°56'6 6.2
2014-Jul-19 07:33N 49°13' W 123°47'1111.3
2014-Jul-19 06:33N 49°09' W 123°31'9 8.5
2014-Jul-19 05:33N 49°06' W 123°19'9 9.5
2014-Jul-19 04:33N 49°07' W 123°05'2 2.2
2014-Jul-19 03:33N 49°09' W 123°02'0 0.0
2014-Jul-19 02:33N 49°09' W 123°02'0 0.0
2014-Jul-19 01:33N 49°09' W 123°02'0 0.0
2014-Jul-19 00:33N 49°09' W 123°02'  

Dump ship's entire track history